Voltar ao catálogo

KUIPER-00442

AtivoComunicaçõesLEO
NORAD 68943·PAYLOAD·🇺🇸 United States

Lançado Apr 30, 2026 de Guiana Space Centre

Loading…

Próximas Passagens (próximas 24 horas)

TLE

AtualizadoSource: CelesTrak SupGP

Época: Sep 14, 2026, 20:55 UTC

1 68943C 26098AA  26257.87194444  .00187320  00000+0  24518-1 0  2576
2 68943  51.9024  14.1066 0000686 113.8472 230.2316 14.79749432    15

Acompanhe KUIPER-00442 em tempo real com AllMySat

Download on the App Store